User: anonymous   Login
Location: Unspecified
(0.0000°N, 0.0000°E)
Time: 10:21:32
(UTC+00:00)
Language:

Asterix - Orbit

View from above orbital plane
View from above orbital plane
View from above satellite
View from above satellite

Ground track
Ground track

The orbit data is extracted from the following two-line orbital elements,

1  1778U 65096A   20183.66857994 +.00000017 +00000-0 +69715-5 0  9998
2  1778 034.2586 297.0951 0751476 342.3935 015.1927 13.46948490670977
Epoch (UTC): 01 July 2020 16:02:45
Eccentricity: 0.0751476
inclination: 34.2586°
perigee height: 523 km
apogee height: 1644 km
right ascension of ascending node: 297.0951°
argument of perigee: 342.3935°
revolutions per day: 13.46948490
mean anomaly at epoch: 15.1927°
orbit number at epoch: 67097

The dashed part of the orbit path shows where the satellite is in the earth's shadow,  

DLR